Temperature
30 30 29 30 31 31 30 27 25 25 27 27 26 23 22 22 22 21 21 21 20 20 20 19 19 19 18 18 18 18 18 18 18 17 17 17 17 17 16 16 15 15 14 14
30 30 31 32 32 31 29 26 25 26 27 27 25 23 24 23 22 22 22 21 21 20 20 19 19 19 19 18 18 18 18 18 18 17 17 17 17 16 16 16 15 14 14 13
31 31 32 32 31 29 27 26 27 27 28 27 24 22 23 24 24 22 22 21 21 21 20 20 20 20 19 19 19 19 18 18 18 17 17 17 16 16 16 16 15 15 14 13
31 32 32 31 30 30 28 29 29 29 27 25 24 22 23 24 24 24 22 22 22 22 21 21 21 20 20 20 19 19 19 18 18 17 17 16 16 16 16 16 15 15 14 13
31 32 31 31 31 31 30 30 28 26 24 23 22 23 24 24 24 24 24 23 23 23 22 22 21 21 21 21 20 19 19 18 18 17 17 16 16 16 16 15 15 14 14 14
31 32 32 32 32 31 31 29 26 23 21 20 22 24 24 25 25 25 25 24 24 23 23 22 22 22 22 21 21 20 19 18 18 17 17 16 16 15 15 15 14 14 14 14
29 29 31 32 31 29 28 28 25 21 19 20 24 25 25 27 27 27 26 25 25 24 24 23 23 22 22 22 21 20 19 19 18 17 16 16 15 15 15 15 14 14 14 14
28 26 29 31 31 30 29 29 27 26 25 24 26 26 27 29 28 28 27 26 25 25 24 24 23 23 22 22 21 21 20 19 18 17 17 16 16 15 15 15 14 14 14 13
29 28 31 32 32 31 30 30 30 29 28 26 26 27 28 29 28 28 27 27 26 26 25 24 24 23 23 22 22 21 20 19 18 17 17 16 16 15 15 14 14 13 13 13
31 30 31 32 32 32 31 30 30 28 27 26 24 25 25 27 28 28 28 27 27 26 26 25 25 24 23 22 21 20 20 19 18 17 17 16 16 15 14 14 13 13 13 13
31 29 30 30 28 29 29 30 29 29 28 27 24 23 26 27 28 28 28 28 27 27 26 26 25 24 23 22 21 20 19 19 18 17 17 16 16 15 14 14 13 13 12 12
31 30 29 28 29 29 30 30 29 28 27 27 27 26 29 29 30 29 29 28 28 27 27 26 25 24 23 22 21 20 19 18 18 17 17 16 16 15 14 14 13 13 13 12
30 28 27 26 25 26 27 29 29 29 28 27 27 26 29 29 30 29 29 28 28 27 27 26 25 24 23 22 21 20 19 19 18 17 17 16 16 15 15 14 14 13 13 12
30 28 27 26 25 26 27 28 29 29 28 27 27 27 28 29 29 29 29 28 28 27 26 26 25 23 23 22 21 20 20 19 18 18 17 16 16 16 15 14 14 13 13 12
30 28 28 29 29 29 28 29 30 29 29 28 28 28 29 29 29 29 29 28 28 27 26 25 24 23 22 22 21 20 20 19 18 18 17 17 16 16 15 15 14 14 13 13
28 27 28 28 29 29 29 30 30 29 29 29 29 29 29 29 29 29 29 28 28 27 26 25 24 23 22 21 21 20 19 19 18 18 17 17 16 16 15 15 14 14 13 13
28 27 27 27 28 28 27 28 28 29 29 29 28 29 29 29 29 28 28 28 28 27 26 25 24 23 22 21 21 20 20 19 19 18 18 17 16 16 15 15 14 14 13 13
28 27 27 27 27 25 26 27 28 28 29 29 29 29 29 29 28 28 28 27 27 27 26 26 25 24 23 22 21 20 20 19 19 18 18 17 16 16 15 15 15 14 14 13
28 27 27 27 26 26 26 26 25 25 26 28 28 28 28 28 28 27 27 27 27 26 26 25 25 24 23 22 22 21 20 19 18 18 17 17 16 16 16 15 15 15 14 14
27 27 27 26 26 25 25 24 24 24 23 25 26 26 27 27 27 26 26 26 26 26 25 25 25 24 24 23 22 21 20 19 18 18 17 17 17 16 16 15 15 15 14 14
23 24 26 26 26 25 24 25 25 23 21 24 25 25 26 26 25 25 25 25 24 24 24 24 24 24 23 23 22 21 20 19 19 18 17 17 16 16 16 15 15 15 14 13
25 24 25 25 24 22 23 23 22 21 23 23 24 24 24 24 24 23 23 23 23 23 23 23 23 22 22 22 21 21 20 19 18 18 17 17 16 16 15 15 15 14 14 13
27 27 26 25 24 21 20 20 21 22 22 22 23 23 22 22 22 21 20 20 20 20 20 20 20 20 20 20 20 19 19 18 17 17 17 16 16 16 15 15 14 14 13 12
26 26 25 24 22 21 21 21 22 22 22 21 21 21 21 20 20 19 19 18 18 18 18 18 18 18 19 18 18 18 17 17 16 16 16 16 15 15 15 14 14 13 13 12
26 25 25 23 22 21 21 21 21 21 21 20 20 20 19 19 19 18 18 17 17 17 17 17 17 17 17 17 17 16 16 15 15 15 15 15 14 14 14 14 13 13 13 13
25 24 24 23 22 22 20 20 21 20 20 19 19 18 18 18 17 17 17 16 16 16 16 16 16 16 16 16 15 15 15 14 14 14 14 14 14 14 14 13 13 13 13 13
Wind_Speed
14 12 12 11 9 9 7 6 2 6 10 5 4 11 11 11 9 8 10 11 11 10 10 10 11 12 12 10 9 7 7 7 3 2 1 0 1 1 1 3 6 3 5 6
14 12 13 11 9 9 7 6 4 9 9 2 5 4 6 9 8 7 9 10 11 11 11 10 10 12 12 11 9 8 7 7 5 3 2 1 1 3 1 1 4 3 4 5
13 7 7 9 8 7 3 6 8 8 5 3 5 0 3 5 7 7 8 9 11 12 12 12 12 12 12 11 11 10 9 8 6 4 3 2 1 3 1 2 1 4 3 3
11 8 8 9 7 9 3 6 8 6 3 1 1 3 5 7 7 8 10 10 11 12 13 13 12 12 12 12 12 9 9 7 6 5 3 3 3 3 2 1 1 2 1 2
12 9 10 9 6 9 7 6 8 12 10 4 3 3 4 9 8 10 12 12 12 14 14 14 14 12 12 12 11 10 10 8 7 5 4 4 4 3 3 3 3 1 3 4
14 11 9 7 5 5 10 8 6 9 6 4 9 5 5 8 11 13 14 14 13 14 14 14 13 11 9 9 9 10 11 8 7 6 5 4 3 3 4 4 4 4 3 2
9 11 9 7 6 3 7 10 2 1 1 6 13 4 6 8 11 12 14 14 14 14 13 13 12 11 10 9 8 8 11 9 8 7 6 4 3 3 5 5 5 3 3 2
6 5 6 7 7 3 7 9 7 6 3 3 6 5 9 11 11 12 13 14 14 14 14 14 13 11 10 10 9 8 9 9 8 6 5 3 2 3 4 2 2 3 3 3
7 4 7 7 6 7 7 8 10 10 7 3 2 7 12 12 11 11 12 14 14 14 14 13 13 12 10 9 8 8 8 8 6 5 5 5 5 5 4 3 4 5 4 4
8 11 8 3 6 6 7 10 8 7 7 3 3 3 4 9 11 11 12 13 14 13 12 13 12 12 10 9 8 8 8 7 5 4 5 5 6 6 6 5 6 5 5 5
7 8 10 4 6 8 7 7 5 7 7 7 2 1 6 9 10 12 13 13 13 14 14 13 11 10 10 10 10 8 8 7 6 5 4 3 3 4 5 5 6 6 6 6
5 7 10 8 10 11 10 8 6 5 6 7 5 3 2 2 6 7 9 11 11 11 10 11 11 10 9 10 11 10 9 8 8 7 6 6 6 6 6 6 6 5 6 6
5 5 9 6 9 11 12 10 7 6 5 7 7 1 2 2 2 5 5 6 8 8 8 8 10 10 9 9 9 10 10 9 9 8 7 7 7 6 6 6 6 6 6 6
4 8 12 12 7 8 11 10 8 8 7 7 6 3 5 3 2 4 5 5 6 7 7 7 8 9 8 8 8 8 8 8 8 7 7 7 6 6 6 6 6 6 6 6
4 9 13 15 14 12 12 12 8 8 8 9 7 5 2 1 1 1 2 4 6 7 8 8 8 9 9 8 8 8 8 7 7 6 6 6 6 6 5 5 6 6 6 8
4 8 12 16 17 14 14 12 10 8 6 7 6 3 4 3 2 1 1 2 4 6 8 9 10 11 11 10 9 9 9 8 8 7 7 6 6 5 5 5 6 6 6 6
9 9 12 14 14 11 11 9 10 7 5 6 4 2 2 2 2 2 3 4 4 5 6 8 10 11 12 11 11 10 10 9 9 9 8 7 6 6 6 6 5 5 5 6
8 8 8 13 14 14 4 4 7 6 4 4 4 3 3 4 2 2 3 4 4 3 4 6 8 11 12 12 13 11 11 10 10 10 9 8 7 6 5 5 5 5 5 6
8 8 10 12 14 10 5 2 6 6 7 10 8 8 9 8 5 6 7 4 2 3 3 3 6 9 11 12 12 13 12 12 12 11 10 8 7 6 5 5 5 5 5 6
7 7 10 12 14 13 3 4 4 4 1 11 12 11 11 10 7 5 8 7 6 4 2 2 4 6 7 9 11 12 12 11 11 10 9 8 7 6 5 5 5 6 6 7
7 10 13 12 11 3 7 4 2 1 1 8 9 9 11 10 9 10 11 10 9 7 5 2 2 3 3 6 8 9 9 9 8 7 7 7 7 7 7 7 6 6 7 8
13 12 12 9 7 1 7 7 4 3 5 9 11 12 11 11 11 12 13 13 13 12 11 8 4 2 1 2 5 6 6 5 5 6 7 7 7 8 7 7 7 7 8 8
8 5 3 1 2 6 7 7 3 5 7 10 12 12 12 12 13 15 15 15 15 15 14 13 11 8 5 2 1 3 3 3 4 5 6 6 7 7 6 7 8 8 8 9
5 5 4 3 10 10 9 9 8 9 10 11 12 13 14 13 14 14 14 14 14 14 14 13 13 11 9 7 4 2 1 2 3 5 5 6 7 8 8 8 9 9 9 9
3 3 4 4 10 12 10 9 10 11 11 12 13 14 14 14 14 13 12 13 13 12 13 12 11 10 10 8 6 5 4 2 3 5 6 7 9 10 9 10 10 11 10 9
6 4 2 4 6 8 8 8 9 10 11 12 12 13 14 14 13 13 12 11 11 12 11 11 11 11 11 9 7 5 4 3 5 6 8 9 9 9 9 10 11 16 17 17
Wind_Direction
259 252 277 287 295 307 337 29 5 272 271 287 133 145 173 185 186 175 159 153 152 149 142 143 145 145 144 147 149 154 157 151 176 179 193 94 57 353 24 113 107 62 30 9
263 264 268 291 306 315 359 7 269 262 264 261 77 115 166 168 180 169 158 160 157 148 146 156 165 160 158 160 160 166 165 164 189 168 162 191 261 281 273 77 126 96 47 356
288 292 299 299 312 318 28 289 265 246 233 135 97 207 209 180 163 162 166 166 159 159 161 169 178 172 171 171 175 181 178 174 186 184 213 243 204 259 277 47 84 81 35 344
297 303 299 299 297 292 262 249 285 309 311 337 183 228 220 188 174 170 170 172 172 169 171 177 184 184 183 180 182 179 171 176 180 193 235 273 284 296 319 306 88 81 292 267
286 288 292 294 300 310 327 335 10 17 360 357 277 247 181 175 180 184 179 180 181 176 180 183 188 187 187 185 183 174 169 174 181 198 224 246 283 320 354 9 4 329 261 223
287 296 288 292 291 342 326 324 31 34 12 326 257 239 154 177 183 181 179 181 184 182 183 181 186 181 184 186 181 170 164 172 181 197 223 231 264 302 316 316 306 292 284 249
293 288 286 285 277 57 302 300 293 79 169 241 243 225 146 159 165 168 172 176 181 182 183 180 186 186 186 188 186 170 161 169 181 197 213 222 232 263 261 253 265 268 295 322
295 298 268 260 282 285 263 282 306 314 266 208 224 145 138 144 148 157 164 169 179 183 187 189 190 190 187 190 186 174 159 162 177 193 195 196 219 256 271 268 328 320 309 306
297 284 237 254 295 297 292 301 315 307 318 16 356 105 121 137 148 158 165 169 180 186 188 190 190 189 187 187 173 159 145 155 174 191 179 184 206 236 278 311 276 263 259 276
300 308 302 255 278 255 280 307 316 321 323 344 25 23 153 168 166 170 176 179 182 186 192 192 187 184 179 168 147 144 143 157 174 194 205 217 194 211 225 241 266 294 298 286
292 299 299 310 301 296 266 271 301 315 326 332 37 330 186 190 179 179 185 186 187 190 194 191 182 174 162 153 147 147 149 161 179 200 207 239 238 246 248 242 243 246 253 265
305 294 302 331 344 331 302 286 273 289 318 311 324 109 143 172 169 177 184 181 185 189 192 182 168 155 156 161 160 160 167 177 184 191 193 202 220 235 247 256 255 253 254 256
341 310 296 328 3 329 302 296 281 276 283 287 304 98 228 255 203 167 167 167 172 176 185 177 158 154 162 169 169 171 178 185 187 185 187 200 212 226 235 247 257 261 261 262
295 281 287 289 257 241 253 261 261 264 274 286 295 287 243 234 205 167 164 174 185 171 170 172 153 152 163 168 168 173 181 184 185 182 189 200 210 226 238 246 253 257 260 260
281 280 287 292 285 270 266 266 264 262 270 280 293 291 318 58 115 145 175 180 189 177 178 176 166 161 167 172 172 179 186 183 184 182 196 204 207 217 230 243 251 256 262 268
274 283 294 290 289 297 289 284 283 276 284 288 289 313 44 50 45 25 320 241 204 192 195 188 179 175 178 183 185 188 191 186 178 191 205 207 208 220 231 239 246 251 254 261
273 274 277 284 296 300 287 307 303 278 264 277 296 355 9 350 30 0 318 286 247 216 208 196 186 183 184 188 189 192 191 188 187 194 205 206 207 220 229 246 256 263 269 270
264 264 274 279 283 279 287 330 316 317 328 343 350 5 19 17 40 331 292 290 291 275 237 203 191 186 186 189 191 192 193 192 195 198 203 206 208 218 222 233 250 258 262 264
271 253 260 273 277 273 288 340 355 352 353 5 19 22 17 9 1 36 24 348 314 281 258 205 206 208 193 193 191 189 197 196 200 203 203 204 205 211 220 238 248 255 259 262
273 253 249 260 274 290 320 155 200 233 345 12 24 10 357 352 344 23 18 357 341 326 318 229 224 223 195 189 186 188 199 201 204 205 199 196 192 199 214 231 240 249 254 261
251 247 246 261 275 313 42 67 188 205 25 348 8 3 0 7 355 351 354 359 2 353 342 318 250 234 212 186 184 192 199 204 203 200 196 191 188 195 208 222 229 235 247 256
235 236 243 252 269 207 24 30 44 43 19 9 12 14 12 9 6 8 11 14 13 9 3 359 357 323 278 169 176 194 206 205 198 198 198 195 194 212 219 215 225 232 242 254
268 289 296 287 124 121 104 104 84 64 47 31 27 24 24 24 25 26 26 23 22 19 14 11 9 5 4 18 156 213 216 210 213 209 209 209 208 214 221 226 235 239 240 250
315 350 332 75 110 117 112 113 94 73 60 49 42 39 38 36 35 33 29 26 24 21 18 15 10 6 6 3 2 338 271 224 224 228 225 227 230 231 230 232 240 243 246 249
277 208 231 134 126 114 85 80 81 73 65 56 49 46 41 39 36 35 33 27 21 20 17 14 10 2 359 1 355 354 352 332 275 259 255 256 253 248 244 239 239 242 244 247
8 23 353 92 116 111 106 89 79 77 70 63 54 47 41 35 29 28 25 20 15 13 11 8 3 358 353 351 349 348 340 317 293 279 269 267 264 259 252 249 249 236 235 240
Height
1498 1499 1496 1488 1482 1482 1485 1496 1504 1501 1490 1490 1494 1503 1506 1507 1509 1510 1512 1513 1515 1518 1521 1524 1527 1529 1532 1535 1537 1540 1542 1543 1545 1546 1547 1548 1548 1548 1547 1546 1543 1542 1541 1539
1493 1494 1485 1480 1478 1480 1486 1498 1502 1493 1487 1488 1497 1502 1501 1503 1507 1508 1509 1512 1514 1517 1521 1524 1527 1530 1532 1535 1537 1539 1541 1542 1544 1545 1546 1546 1546 1546 1546 1545 1543 1541 1539 1538
1488 1484 1478 1477 1479 1485 1491 1496 1492 1491 1485 1487 1499 1509 1502 1499 1503 1507 1508 1510 1513 1516 1520 1524 1527 1530 1532 1534 1536 1539 1540 1541 1543 1544 1544 1545 1545 1545 1545 1543 1542 1540 1538 1537
1482 1478 1477 1477 1480 1479 1489 1482 1481 1484 1491 1501 1505 1518 1504 1498 1501 1504 1507 1509 1511 1515 1519 1523 1526 1529 1531 1533 1535 1537 1538 1540 1541 1542 1542 1543 1543 1543 1543 1541 1540 1538 1537 1536
1482 1477 1477 1478 1478 1475 1478 1475 1482 1492 1503 1509 1510 1510 1505 1497 1501 1501 1503 1506 1509 1513 1517 1521 1524 1527 1530 1532 1533 1535 1536 1537 1538 1539 1540 1540 1540 1541 1540 1539 1538 1537 1536 1535
1478 1475 1474 1473 1472 1474 1475 1479 1489 1504 1517 1532 1510 1505 1506 1493 1493 1495 1498 1503 1507 1511 1515 1519 1522 1525 1528 1530 1532 1533 1534 1535 1536 1537 1537 1538 1538 1537 1536 1536 1535 1535 1535 1535
1487 1482 1475 1473 1474 1477 1481 1489 1506 1527 1540 1530 1498 1497 1496 1483 1483 1488 1493 1499 1504 1509 1513 1517 1520 1523 1525 1528 1530 1531 1532 1533 1534 1535 1535 1535 1535 1535 1534 1534 1534 1534 1534 1534
1495 1499 1482 1473 1472 1478 1478 1481 1498 1511 1513 1507 1492 1491 1483 1477 1481 1485 1490 1496 1502 1506 1510 1513 1516 1520 1522 1525 1527 1529 1530 1530 1532 1533 1533 1533 1533 1532 1533 1533 1532 1532 1531 1531
1484 1487 1471 1468 1468 1470 1476 1476 1471 1480 1485 1500 1495 1483 1481 1477 1481 1484 1489 1494 1499 1502 1506 1509 1512 1516 1519 1521 1524 1526 1527 1528 1530 1530 1530 1530 1530 1530 1530 1529 1529 1529 1529 1528
1473 1481 1469 1466 1467 1468 1471 1471 1474 1484 1499 1506 1508 1501 1497 1485 1482 1483 1486 1490 1495 1499 1502 1506 1509 1512 1515 1518 1520 1523 1525 1526 1527 1528 1528 1529 1527 1527 1526 1526 1526 1525 1525 1524
1469 1481 1477 1473 1480 1479 1477 1475 1476 1478 1482 1498 1515 1515 1484 1479 1477 1479 1482 1486 1491 1494 1498 1501 1505 1509 1512 1515 1517 1520 1522 1523 1524 1525 1525 1525 1525 1525 1524 1523 1523 1522 1521 1520
1470 1477 1484 1482 1476 1473 1472 1472 1475 1489 1492 1488 1494 1502 1474 1473 1473 1475 1478 1482 1487 1491 1494 1498 1502 1505 1509 1513 1515 1517 1519 1520 1521 1522 1522 1522 1521 1521 1520 1520 1520 1519 1518 1517
1473 1483 1495 1498 1501 1491 1482 1473 1471 1475 1482 1488 1496 1497 1475 1473 1473 1475 1478 1481 1485 1489 1492 1496 1499 1502 1507 1510 1513 1514 1516 1517 1518 1519 1519 1518 1518 1518 1517 1516 1516 1515 1514 1513
1477 1483 1492 1503 1502 1490 1485 1476 1471 1475 1484 1487 1487 1486 1476 1472 1472 1474 1477 1481 1484 1487 1490 1494 1497 1500 1504 1507 1510 1512 1513 1515 1515 1516 1515 1515 1515 1514 1514 1513 1512 1511 1510 1509
1476 1482 1480 1477 1474 1472 1473 1469 1466 1470 1473 1479 1477 1475 1472 1470 1471 1473 1476 1479 1482 1485 1488 1492 1495 1498 1501 1504 1506 1508 1510 1511 1511 1512 1512 1511 1511 1511 1510 1509 1508 1507 1506 1505
1476 1482 1481 1480 1469 1466 1467 1464 1463 1465 1466 1469 1470 1471 1467 1469 1471 1473 1475 1477 1480 1483 1486 1489 1492 1495 1497 1500 1502 1504 1505 1506 1507 1507 1507 1507 1507 1507 1506 1505 1504 1503 1501 1500
1476 1480 1484 1483 1471 1474 1479 1471 1469 1466 1464 1466 1471 1469 1466 1468 1470 1473 1475 1476 1477 1480 1482 1484 1487 1490 1493 1495 1497 1499 1500 1501 1501 1501 1502 1502 1502 1502 1502 1501 1501 1499 1497 1496
1473 1478 1480 1480 1480 1493 1478 1468 1466 1465 1464 1463 1464 1464 1466 1468 1470 1472 1473 1474 1476 1477 1479 1481 1483 1485 1488 1490 1492 1494 1495 1495 1496 1496 1496 1497 1497 1497 1497 1497 1496 1494 1492 1490
1469 1473 1478 1479 1482 1478 1471 1469 1472 1476 1476 1469 1468 1467 1467 1469 1470 1472 1473 1474 1476 1477 1477 1478 1480 1481 1483 1484 1486 1487 1489 1489 1490 1490 1491 1492 1493 1493 1493 1492 1491 1489 1487 1485
1470 1470 1476 1476 1482 1487 1475 1471 1472 1477 1485 1476 1474 1474 1473 1471 1473 1474 1475 1476 1475 1475 1475 1475 1476 1477 1478 1479 1480 1481 1482 1484 1484 1485 1486 1487 1487 1487 1487 1486 1485 1484 1482 1480
1482 1478 1474 1474 1477 1477 1475 1473 1475 1490 1494 1481 1477 1476 1475 1476 1477 1477 1475 1474 1474 1473 1473 1473 1473 1473 1474 1474 1475 1476 1477 1478 1480 1481 1482 1482 1481 1481 1480 1480 1479 1478 1476 1474
1473 1475 1473 1472 1483 1491 1479 1478 1484 1489 1484 1482 1480 1479 1478 1478 1477 1476 1475 1474 1473 1472 1471 1471 1470 1471 1470 1471 1471 1472 1473 1474 1476 1476 1476 1475 1475 1474 1473 1473 1472 1471 1470 1468
1457 1458 1459 1465 1473 1477 1478 1481 1484 1484 1484 1483 1482 1481 1480 1480 1480 1479 1478 1476 1475 1473 1471 1470 1469 1469 1469 1468 1468 1469 1469 1471 1471 1471 1470 1470 1469 1469 1468 1467 1466 1464 1463 1462
1457 1457 1460 1466 1473 1477 1480 1481 1483 1484 1484 1485 1484 1484 1483 1483 1483 1482 1481 1479 1477 1475 1474 1472 1471 1469 1468 1467 1467 1467 1467 1466 1466 1466 1465 1465 1464 1463 1461 1460 1459 1458 1457 1456
1455 1458 1460 1466 1474 1478 1483 1483 1484 1484 1485 1485 1486 1486 1486 1486 1486 1485 1484 1482 1481 1479 1477 1475 1473 1471 1469 1467 1466 1465 1464 1463 1463 1462 1461 1459 1458 1456 1455 1453 1452 1450 1449 1449
1459 1460 1461 1467 1472 1474 1482 1483 1484 1485 1486 1487 1488 1489 1489 1489 1488 1487 1486 1484 1483 1480 1478 1476 1474 1472 1470 1467 1465 1464 1462 1461 1459 1458 1456 1454 1452 1450 1447 1445 1444 1442 1441 1440